Regional Weather Roundup
Issued by NWS Raleigh/Durham, NC

Home | Current Version | Previous Version | Text Only | Print | Product List | Glossary On
Versions: 1 2 3 4 5 6 7 8 9 10 11 12 13 14 15 16 17 18 19 20 21 22 23 24 25 26 27 28 29 30 31 32 33 34 35 36 37 38 39 40 41 42 43 44 45 46 47 48 49 50
000
ASUS42 KRAH 280110
RWRRAH
NORTH CAROLINA WEATHER ROUNDUP
NATIONAL WEATHER SERVICE RALEIGH NC
900 PM EDT MON JUL 27 2015

NOTE: "FAIR" INDICATES FEW OR NO CLOUDS BELOW 12,000 FEET WITH NO
SIGNIFICANT WEATHER AND/OR OBSTRUCTIONS TO VISIBILITY.

NCZ001-053-055-056-065-067-280200-
WESTERN NORTH CAROLINA

CITY           SKY/WX    TMP DP  RH WIND       PRES   REMARKS
ASHEVILLE      PTCLDY    76  68  76 NW5       30.07R
JEFFERSON      PTCLDY    71  64  78 CALM      30.12R
MORGANTON      MOCLDY    77  71  79 CALM      30.06R
HICKORY        MOCLDY    75  72  90 CALM      30.01R
RUTHERFORDTON  MOCLDY    73  73 100 CALM      30.01R
MOUNT AIRY     PTCLDY    82  73  76 CALM      30.02S
BOONE          CLEAR     69  68  96 CALM      30.14R
$$

NCZ021-022-025-041-071-084-088-280200-
CENTRAL NORTH CAROLINA

CITY           SKY/WX    TMP DP  RH WIND       PRES   REMARKS
CHARLOTTE      CLOUDY    79  72  79 CALM      29.98S
GREENSBORO     PTCLDY    75  72  90 SW7       29.99S
WINSTON-SALEM  CLOUDY    77  69  76 S8G16     30.02R
RALEIGH-DURHAM MOCLDY    82  70  66 SE6       29.98R
FORT BRAGG     MOCLDY    84  71  64 S8        29.96S
FAYETTEVILLE   MOCLDY    83  70  64 SE6       29.97R
BURLINGTON     PTCLDY    80  70  71 CALM      29.98S
LAURINBURG     PTCLDY    83  69  62 SE7       29.98R
$$

NCZ011-015-027-028-043-044-047-080-103-280200-
NORTHEASTERN NORTH CAROLINA

CITY           SKY/WX    TMP DP  RH WIND       PRES   REMARKS
ROCKY MT-WILSO CLEAR     81  71  71 VRB3      29.99R
GREENVILLE     CLEAR     81  72  74 SE6       30.02R
WASHINGTON     MOCLDY    78  71  78 CALM      30.01S
ELIZABETH CITY MOCLDY    79  70  74 S7        30.01R
MANTEO         PTCLDY    78  70  77 S5        30.01S
CAPE HATTERAS  PTCLDY    80  68  66 SE10      30.01S
$$

NCZ078-087-090-091-093-098-101-280200-
SOUTHEASTERN NORTH CAROLINA

CITY           SKY/WX    TMP DP  RH WIND       PRES   REMARKS
LUMBERTON      PTCLDY    83  70  64 SE5       29.97R
GOLDSBORO      MOCLDY    82  74  77 SE6       29.97R
KINSTON        MOCLDY    81  70  69 SE8       30.00R
KENANSVILLE    MOCLDY    77  70  78 CALM      30.00S
NEW BERN       MOCLDY    77  71  82 CALM      30.01R
CHERRY POINT   MOCLDY    78  71  79 CALM      30.01R
BEAUFORT       CLOUDY    80  71  74 SE6       30.00R
JACKSONVILLE   MOCLDY    80  71  74 S6        29.99R
WILMINGTON     MOCLDY    81  72  74 SE7       29.98R
$$



USA.gov is the U.S. government's official web portal to all federal, state and local government web resources and services.